Meteo Giornale » Osservazioni meteo Italia » Roma Fiumicino

ore: 23:20 - Osservazioni Meteo Roma Fiumicino
Lat. 41° 48' N Lon. 12° 14' E Alt. 2 metri s.l.m.

sereno Europe/Rome

13 °C

Sereno

Temp. 24 Ore

10 °C

22 °C

Est/Nord-Est

7.4 Km/h

Dew point 12 °C

Umidità 93 %

Visibilità  7 Km

Il sole sorge alle ore 07:26

Il sole tramonta alle ore 18:26

Data e Ora Cielo e Fenomeni T °C DP °C Um. % Pres. hPa Vis. km Vento km/h
Ieri h: 23:20 sereno Sereno 13 12 93 1019 7 E/NE 7.4
Ieri h: 22:50 sereno Sereno 12 11 93 1019 8 N 3.7
Ieri h: 21:50 sereno Sereno 13 11 87 1019 10 N 5.5
Ieri h: 21:20 sereno Sereno 14 13 93 1019 10 N 3.7
Ieri h: 20:50 sereno Sereno 14 13 93 1019 10 N 1.8
Ieri h: 20:20 sereno Sereno 16 14 87 1019 10 N 3.7
Ieri h: 19:50 sereno Sereno 16 15 93 1019 10 N 1.8
Ieri h: 19:20 sereno Sereno 17 15 88 1019 10 N 5.5
Ieri h: 18:50 sereno Sereno 18 15 82 1018 10 O/SO 7.4
Ieri h: 17:50 sereno Sereno 20 15 72 1019 10 O/SO 7.4
Ieri h: 17:20 sereno Sereno 20 15 72 1018 10 O/SO 9.3
Ieri h: 16:50 sereno Sereno 21 15 68 1018 10 O/SO 11.1
Ieri h: 16:20 sereno Sereno 21 15 68 1019 10 O/SO 13
Ieri h: 15:50 sereno Sereno 21 15 68 1019 10 SO 14.8
Ieri h: 15:20 sereno Sereno 21 15 68 1019 10 O/SO 14.8
Ieri h: 14:50 sereno Sereno 22 15 64 1019 10 N 11.1
Ieri h: 14:20 sereno Sereno 21 15 68 1019 10 O/SO 13
Ieri h: 13:50 poco_nuvoloso Poco Nuvoloso 21 15 68 1020 10 O 11.1
Ieri h: 13:20 poco_nuvoloso Poco Nuvoloso 21 15 68 1020 10 O 13
Ieri h: 12:50 poco_nuvoloso Poco Nuvoloso 21 15 68 1020 10 N 7.4
Ieri h: 12:20 nuvoloso Nuvoloso 21 15 68 1021 9 N 3.7
Ieri h: 11:50 nuvoloso Nuvoloso 20 15 72 1021 9 N 3.7
Ieri h: 11:20 nuvoloso Nuvoloso 19 15 77 1021 8 E 7.4
Ieri h: 10:50 sereno Sereno 19 15 77 1021 8 E 9.3
Ieri h: 10:20 foschia Foschia 18 15 82 1021 5 E 11.1
Ieri h: 09:50 foschia Foschia 17 15 88 1021 5 E 11.1
Ieri h: 09:20 foschia Foschia 15 14 93 1021 5 E 9.3
Ieri h: 08:50 foschia Foschia 14 13 93 1022 5 NE 7.4
Ieri h: 08:20 foschia Foschia 13 13 100 1021 4 N 5.5
Ieri h: 07:50 nebbia Banco di Nebbia 12 11 93 1021 4 E/NE 7.4
Ieri h: 07:20 nebbia Banco di Nebbia 11 11 100 1021 3 E 7.4
Ieri h: 06:50 foschia Foschia 10 10 100 1021 3 E/NE 9.3
Ieri h: 06:20 foschia Foschia 10 10 100 1021 2 E 7.4
Ieri h: 05:50 foschia Foschia 10 10 100 1021 0.9 N 3.7
Ieri h: 05:20 foschia Foschia 11 11 100 1021 1 N 5.5
Ieri h: 04:50 foschia Foschia 12 12 100 1021 1 E 9.3
Ieri h: 04:20 foschia Foschia 13 12 93 1022 2 N 5.5
Ieri h: 03:50 foschia Foschia 13 12 93 1022 3 N 3.7
Ieri h: 03:20 nebbia Nebbia a Strati 12 11 93 1022 4 N 1.8
Ieri h: 02:50 nebbia Nebbia a Strati 11 10 93 1022 4 N 1.8
Ieri h: 02:20 nebbia Nebbia a Strati 11 10 93 1022 4 N 3.7
Ieri h: 01:50 nebbia Nebbia a Strati 11 10 93 1022 4 E/NE 7.4
Ieri h: 01:20 foschia Foschia Nebbia 10 1 53 0 1 N 5.5
Ieri h: 00:50 foschia Foschia 10 10 100 1022 2 N 3.7